Regional Weather Roundup
Issued by NWS

Home | Current Version | Previous Version | Graphics & Text | Print | Product List | Glossary On
Versions: 1 2 3 4 5 6 7 8 9 10 11 12 13 14 15 16 17 18 19 20 21 22 23 24 25 26 27 28 29 30 31 32 33 34 35 36 37 38 39 40 41 42 43 44 45 46 47 48 49 50
000
ASUS43 KBIS 301810
RWRND

NORTH DAKOTA REGIONAL WEATHER ROUNDUP
NATIONAL WEATHER SERVICE BISMARCK ND
100 PM CDT SUN AUG 30 2015

NOTE: "FAIR" INDICATES FEW OR NO CLOUDS BELOW 12,000 FEET WITH NO
SIGNIFICANT WEATHER AND/OR OBSTRUCTIONS TO VISIBILITY.


NDZ001>003-009>011-017-301900-
NORTHWEST NORTH DAKOTA

CITY           SKY/WX    TMP DP  RH WIND       PRES   REMARKS
WILLISTON      CLOUDY    84  52  33 N15       29.63S HAZE
6HR MIN TEMP:  60; 6HR MAX TEMP:  88;

MINOT          PTSUNNY   89  56  32 S13       29.62F
MINOT AFB      PTSUNNY   92  57  30 S14       29.60F HX  90
$$

NDZ018>021-031>035-040>046-301900-
SOUTHWEST NORTH DAKOTA

CITY           SKY/WX    TMP DP  RH WIND       PRES   REMARKS
BISMARCK       CLOUDY    86  59  39 S13       29.70S
6HR MIN TEMP:  62; 6HR MAX TEMP:  87;

GARRISON         N/A     87  58  37 S14       29.66F
6HR MIN TEMP:  62; 6HR MAX TEMP:  87;

HETTINGER ARPT PTSUNNY   93  45  19 SW10      29.73F
$$

NDZ004>008-012>016-024-026-027-054-301900-
NORTHEAST NORTH DAKOTA

CITY           SKY/WX    TMP DP  RH WIND       PRES   REMARKS
GRAND FORKS    PTSUNNY   80  66  62 S16       29.73F
GRND FRKS AFB  MOSUNNY   81  68  64 SE14      29.73F
DEVILS LAKE    MOSUNNY   82  64  54 SE15      29.68F
$$

NDZ022-023-025-028>030-036>039-047>053-301900-
SOUTHEAST NORTH DAKOTA

CITY           SKY/WX    TMP DP  RH WIND       PRES   REMARKS
FARGO          SUNNY     82  65  56 S16       29.79F
6HR MIN TEMP:  65; 6HR MAX TEMP:  82;

JAMESTOWN      SUNNY     82  66  58 S15G22    29.74F
$$



USA.gov is the U.S. government's official web portal to all federal, state and local government web resources and services.